Location: Wanzleben
(52.0609°N, 11.4408°E)
Time: 18:47:58
(UTC+00:00)

COSMOS 2406 - Pass Details

Date: 24 January 2021
Orbit: 841 x 865 km, 71.0° (Epoch: 06 March)

Event Time Altitude Azimuth Distance (km) Brightness Sun altitude
Rises 16:37:17 0° 329° (NNW) 3,460 6.5 -7.7°
Reaches altitude 10° 16:40:02 10° 340° (NNW) 2,520 5.7 -8.1°
Maximum altitude 16:45:13 33° 43° (NE) 1,436 4.0 -8.8°
Drops below altitude 10° 16:50:22 10° 106° (ESE) 2,504 5.2 -9.6°
Enters shadow 16:52:25 - 114° (ESE) 3,201 5.8 -9.9°
